RH
21 20 62 99 100 100 98 87 85 76 63 82 88 82 100 100 100 100 100 97 65 53 49 62 100 55 49 47 39 33 37 34 34 35 37 42 55 76 75 74 46 51 43 38 33
24 22 22 84 90 100 94 62 88 77 67 80 78 99 100 94 95 100 100 100 100 81 55 76 93 52 61 55 41 44 37 34 37 36 39 40 55 70 80 65 49 36 22 24 28
20 23 23 22 72 100 98 72 60 72 52 72 94 83 86 100 100 97 95 88 100 100 77 75 86 63 64 58 50 47 38 30 38 41 40 38 49 57 62 52 47 38 17 16 18
18 19 22 23 43 100 94 100 80 100 59 66 88 98 82 90 89 94 98 92 94 100 99 97 90 77 75 69 58 53 39 40 40 34 40 33 44 81 64 64 50 46 30 14 14
19 17 20 23 39 95 100 100 99 100 95 70 79 97 94 96 76 97 91 80 86 100 100 100 98 91 85 72 71 61 50 42 42 32 36 32 46 91 63 66 57 46 46 21 13
21 18 17 20 24 74 100 93 97 94 100 100 98 86 88 97 97 100 99 100 84 65 100 100 97 97 94 90 77 63 67 65 77 46 43 34 50 81 63 57 46 45 41 31 17
27 20 19 16 20 31 99 100 94 86 100 99 81 92 58 84 90 90 82 88 84 99 100 100 98 92 87 92 92 62 63 72 58 59 45 40 50 65 91 87 51 46 44 32 18
32 26 22 19 17 20 54 98 100 100 97 100 100 98 74 68 90 85 82 77 65 54 79 100 100 100 100 80 83 66 57 52 49 52 42 32 35 40 97 87 47 44 42 37 29
35 28 25 22 22 18 20 38 87 100 80 99 100 100 99 100 91 92 66 71 69 57 47 53 96 100 100 92 58 51 56 57 78 80 53 41 32 38 100 61 44 42 36 34 40
38 31 29 25 25 23 20 20 20 49 90 98 85 88 76 96 66 95 67 53 65 54 61 54 76 100 100 93 60 74 99 92 99 100 43 39 30 45 98 77 51 38 38 49 38
38 34 34 31 26 24 22 24 20 20 29 82 100 99 98 100 77 87 100 61 46 38 61 61 54 74 99 82 89 100 65 75 92 69 40 32 37 50 57 86 80 49 43 49 43
26 27 34 30 28 25 21 22 24 20 19 25 46 85 100 100 100 95 99 88 67 54 53 40 44 69 69 87 70 81 62 91 93 69 53 44 36 55 49 54 77 53 38 43 46
21 22 23 29 30 25 22 20 20 21 18 16 18 25 66 100 100 100 98 98 98 80 75 51 44 72 97 90 82 75 66 48 73 60 58 54 45 60 52 42 57 60 56 48 54
12 15 18 20 25 25 22 22 20 19 18 15 16 17 22 60 90 100 100 100 100 100 98 95 56 87 71 57 87 92 65 46 60 76 86 72 51 55 39 32 75 60 58 57 59
15 13 13 16 20 21 22 22 20 19 17 16 15 18 17 18 31 57 87 100 100 100 100 100 77 62 82 62 57 75 46 67 87 92 100 69 66 75 59 34 56 38 74 64 59
37 24 15 14 15 17 18 20 20 19 19 17 18 17 17 17 18 20 44 96 100 100 100 100 98 99 100 100 100 94 69 88 100 100 95 84 70 76 71 54 47 52 88 59 59
54 46 50 20 12 13 14 17 19 20 19 20 19 20 18 19 18 17 17 18 36 96 100 100 91 93 100 100 100 100 100 100 100 100 100 84 80 65 77 65 59 94 90 64 64
60 68 58 36 19 18 14 14 15 19 19 19 21 24 22 20 19 20 19 21 18 23 74 65 44 26 28 91 100 100 100 99 87 99 99 100 99 72 65 56 75 100 80 69 65
67 77 72 54 40 30 24 17 15 15 16 19 20 24 24 22 22 20 21 18 20 21 21 21 24 35 26 34 78 100 100 100 94 99 90 92 79 55 43 48 65 74 69 60 75
77 93 94 80 67 45 29 20 15 16 16 15 19 21 24 23 24 24 22 28 62 27 20 77 48 33 27 24 54 97 98 98 90 91 87 66 82 77 46 36 78 83 64 64 81
51 100 91 87 76 56 37 34 27 19 21 17 18 24 23 23 23 24 30 38 56 46 40 80 33 36 29 49 72 49 84 88 93 95 80 52 65 52 56 94 100 83 82 77 81
54 73 90 90 71 74 58 47 31 30 35 38 41 66 50 47 57 44 51 44 59 100 94 91 78 67 83 100 97 75 99 93 98 82 53 48 97 63 92 100 100 99 95 84 85
64 74 91 87 67 87 72 59 36 46 63 78 95 100 100 100 100 100 100 100 100 100 99 90 90 71 62 59 79 100 99 95 87 70 45 75 100 100 100 100 100 96 89 88 85
70 82 87 94 93 92 86 67 53 83 76 100 100 100 100 100 100 100 100 100 100 100 100 100 100 97 85 95 100 100 99 78 74 86 97 99 92 100 100 99 96 92 85 80 83
71 78 92 95 97 86 78 66 65 92 82 83 100 100 100 100 100 100 100 100 100 100 100 100 100 97 100 100 100 100 89 100 100 98 96 97 100 100 80 82 77 87 81 81 82
86 86 94 94 89 79 92 100 100 100 100 100 100 100 100 100 100 100 100 100 100 100 100 100 100 100 100 100 100 76 100 100 100 98 89 81 100 98 93 85 77 71 65 64 67
84 78 92 92 90 83 89 100 100 93 99 100 100 100 100 100 100 100 100 100 100 100 100 100 100 100 100 97 100 100 100 100 100 94 72 98 100 100 100 100 92 76 66 59 55
Wind_Speed
79 75 74 72 64 66 61 56 56 58 51 51 50 46 45 45 41 38 31 31 31 28 28 25 19 19 14 13 16 15 17 19 21 21 25 30 32 36 39 35 32 30 29 27 24
82 78 74 70 67 68 64 59 59 56 52 49 52 48 47 43 44 38 39 35 35 29 28 29 21 20 16 13 12 16 21 15 20 19 21 27 34 32 37 37 37 34 30 29 25
80 82 78 75 74 70 70 67 60 59 55 61 51 51 50 50 47 41 42 38 39 39 31 33 25 25 19 16 16 19 22 16 18 25 27 30 31 33 33 37 41 41 34 31 29
80 81 81 78 79 80 74 73 64 62 60 55 53 51 51 49 45 46 43 41 37 40 36 35 28 26 21 20 20 22 23 20 23 31 31 30 31 30 37 39 44 45 42 33 30
80 79 84 84 78 78 73 73 70 69 67 62 60 55 53 53 49 47 45 44 41 36 40 39 34 29 26 23 23 26 26 26 27 34 33 34 35 30 36 42 47 48 47 40 35
83 80 80 85 84 84 78 76 75 70 67 68 66 63 57 58 51 49 46 46 45 42 40 42 38 37 31 27 28 29 28 30 34 34 33 32 35 32 37 42 41 42 42 45 40
84 83 80 80 86 85 87 82 77 76 76 76 70 67 61 59 62 55 51 49 46 44 40 42 43 40 34 35 31 35 34 34 37 36 35 30 35 34 36 42 46 37 45 44 45
85 85 84 80 80 90 91 91 86 83 80 77 76 71 66 61 62 56 54 54 52 47 47 42 44 44 38 37 38 40 35 34 35 37 38 35 41 39 39 40 42 37 43 43 48
88 86 88 85 81 83 92 93 94 88 85 85 77 76 72 70 68 63 58 59 57 54 48 47 47 45 43 41 42 41 41 40 39 41 41 40 38 45 37 38 43 46 47 42 48
92 88 89 90 88 85 86 91 91 93 94 90 85 81 76 77 71 67 62 63 59 56 52 50 52 53 48 48 46 44 44 41 43 46 44 46 39 47 44 45 45 49 45 44 47
94 92 90 91 92 91 87 87 90 90 88 92 87 89 84 80 78 74 73 65 61 58 56 53 52 51 51 50 48 49 47 47 44 46 45 48 50 49 53 50 50 50 49 42 48
98 93 93 93 92 95 93 90 88 87 88 87 85 84 85 85 82 79 77 71 70 68 65 59 60 59 56 53 50 49 50 53 51 47 48 52 54 54 52 53 52 52 49 49 50
102 100 96 96 97 96 97 95 92 89 89 87 88 86 86 88 83 85 78 74 72 70 68 67 63 62 62 57 59 60 55 56 56 57 56 55 57 57 55 58 57 56 58 56 50
98 100 101 98 98 99 97 96 98 94 90 85 84 87 83 83 84 82 85 78 78 76 73 67 68 68 63 66 64 60 62 64 63 64 61 60 57 60 56 57 55 58 61 57 51
91 93 97 101 100 100 99 97 97 98 94 89 86 87 85 83 85 83 84 82 79 76 71 70 69 70 67 70 71 70 71 72 65 64 63 60 59 61 63 55 58 55 61 55 57
86 88 90 92 98 99 99 100 97 97 98 96 91 91 89 86 87 84 81 80 81 77 75 78 78 77 72 75 73 73 72 68 64 62 64 67 61 61 65 63 63 62 61 60 56
82 83 81 86 93 97 101 100 98 96 96 96 95 94 94 92 88 87 86 82 82 85 84 88 87 80 80 76 72 70 72 70 68 69 68 69 65 64 65 65 67 67 63 67 61
82 80 81 78 79 81 91 96 98 100 98 95 95 94 94 92 91 92 89 86 86 82 84 81 83 78 76 77 79 81 78 74 73 72 68 71 69 69 68 70 62 64 66 69 66
80 78 76 74 72 75 79 85 93 98 98 96 96 96 96 95 92 92 90 89 88 89 88 86 80 79 78 77 77 80 81 79 77 76 73 73 74 72 70 68 63 67 68 69 63
79 77 76 73 68 69 70 72 83 90 97 99 99 99 99 100 98 96 93 87 84 89 88 77 84 82 79 77 78 81 81 82 81 81 76 77 78 77 74 68 69 70 68 69 63
79 80 77 73 68 66 60 64 71 76 89 94 99 98 99 99 101 100 98 95 90 87 88 86 86 85 80 76 74 76 81 82 82 82 80 76 74 73 73 73 70 72 70 61 61
79 78 78 73 67 58 57 61 66 70 79 84 89 91 93 93 95 97 96 90 86 83 85 84 79 76 75 80 80 80 83 83 81 81 80 74 70 73 75 72 71 68 65 63 65
80 78 77 75 63 57 61 61 62 64 69 76 82 86 88 87 87 85 79 80 84 86 82 79 77 75 76 78 77 75 82 83 80 81 72 67 75 77 77 70 68 67 65 71 75
82 80 77 70 64 61 60 60 55 60 65 75 83 86 93 88 85 84 83 82 72 66 68 67 67 71 77 76 77 77 78 80 77 71 73 73 76 74 74 69 72 78 78 80 80
82 78 73 66 61 60 56 56 54 60 64 71 84 84 92 96 86 82 83 84 82 80 79 76 74 75 72 73 77 74 75 76 79 80 76 79 79 88 86 82 81 79 78 79 84
80 77 73 69 68 63 57 56 56 61 64 68 79 92 84 97 97 89 82 80 81 75 66 70 76 75 75 80 77 76 71 75 80 82 79 84 84 84 81 83 85 84 86 85 89
79 77 74 70 65 57 49 59 63 64 64 69 71 87 92 80 95 95 93 83 76 83 79 74 75 76 80 81 73 68 81 83 86 89 90 84 86 88 87 88 91 93 96 96 95
Wind_Direction
237 237 233 231 231 239 238 232 234 230 237 230 228 222 232 236 237 240 239 242 247 252 259 257 263 266 280 300 320 332 342 342 339 342 346 352 342 357 350 347 340 331 328 321 314
234 235 234 232 232 230 235 236 232 231 237 231 230 229 226 232 231 242 249 256 258 250 260 260 248 255 272 287 319 324 326 337 352 346 339 349 348 357 349 347 342 337 329 324 314
233 231 233 229 228 227 234 234 236 238 236 231 233 233 231 228 233 235 240 245 258 258 256 256 239 248 259 272 293 305 319 317 331 338 339 338 341 2 359 351 345 340 333 326 319
234 230 230 231 225 229 230 232 234 232 235 233 234 236 230 230 232 237 239 241 245 258 258 255 238 245 251 263 282 297 305 316 317 322 331 334 333 344 348 349 352 343 334 325 317
233 233 228 229 227 227 227 227 231 230 236 237 237 236 237 231 232 236 239 243 243 247 256 258 241 244 250 258 278 291 297 303 312 320 319 331 331 333 342 344 341 339 334 326 319
231 231 230 228 228 226 222 228 230 230 228 235 237 241 241 235 235 236 238 243 244 247 254 254 247 246 246 263 277 289 291 296 304 315 320 327 333 320 333 336 343 341 337 328 321
232 231 231 230 226 228 228 221 225 226 228 234 237 239 242 243 238 241 243 243 243 243 250 257 251 249 253 263 275 284 288 293 300 301 311 322 324 322 321 327 340 337 334 332 320
231 231 231 231 230 228 227 228 224 224 227 230 237 238 244 243 239 242 248 242 242 243 245 251 256 251 252 260 271 278 285 295 298 302 307 308 314 321 315 326 331 331 334 332 329
231 229 230 231 231 231 228 228 229 226 229 232 232 236 238 242 242 241 246 246 246 246 248 251 252 257 253 261 268 279 283 288 295 300 303 305 313 308 321 332 330 328 330 329 330
231 228 231 230 231 233 231 230 230 231 232 230 232 235 237 239 242 241 247 249 243 248 250 250 252 252 252 263 266 274 278 284 291 296 301 303 304 303 309 322 323 330 324 325 328
232 229 229 231 231 231 230 231 232 233 232 232 233 234 236 237 241 242 245 244 243 251 248 250 250 256 256 262 263 269 277 280 285 292 299 301 301 303 304 305 311 323 328 324 326
234 231 231 229 230 231 230 230 231 233 233 235 234 234 232 234 239 242 244 245 247 248 251 252 256 257 258 259 263 269 276 278 277 287 293 296 299 298 299 299 299 319 321 322 325
234 233 232 230 230 230 230 230 231 232 232 233 235 237 237 235 236 240 242 243 246 248 249 251 255 255 255 260 262 271 275 282 274 281 289 291 296 295 296 296 293 304 318 317 324
233 233 232 231 231 231 229 230 231 231 232 232 234 237 236 238 240 237 236 243 246 248 245 249 255 253 258 264 266 269 273 279 273 278 283 287 290 293 294 294 295 297 309 313 309
233 232 231 231 231 231 230 230 230 231 232 233 234 234 237 237 238 240 241 242 243 246 247 246 249 252 257 263 266 267 274 275 274 278 280 286 288 289 288 296 292 301 306 307 313
231 232 231 231 232 232 231 230 230 231 231 232 234 236 237 238 238 238 239 238 241 241 242 246 250 252 258 262 263 266 270 271 274 273 278 285 284 286 287 292 296 294 304 308 307
230 232 233 231 232 231 231 230 230 230 231 230 232 235 237 237 238 239 239 241 242 243 244 246 251 254 257 258 260 263 265 267 272 272 279 282 280 284 284 291 291 290 300 307 307
230 232 233 232 231 231 232 231 230 231 232 231 230 232 236 238 238 239 241 242 244 244 246 249 253 254 255 254 257 259 262 266 270 274 277 279 280 282 283 287 288 293 299 302 300
227 229 232 232 231 231 231 229 229 231 232 231 231 232 233 237 238 240 241 244 244 245 246 248 251 254 255 256 257 258 262 266 268 270 274 277 279 280 286 286 286 290 296 299 293
224 226 229 231 231 233 232 233 230 229 231 230 231 232 233 235 237 241 243 244 245 248 250 251 253 255 257 256 256 257 262 265 266 268 271 277 278 280 284 284 283 286 293 292 288
222 223 228 229 228 231 234 234 231 229 231 231 230 231 232 234 236 237 240 243 241 246 248 248 253 257 258 256 255 260 261 263 265 267 270 277 278 281 285 283 284 286 289 287 285
223 222 226 227 227 231 232 235 233 231 229 228 228 227 228 230 233 236 239 242 242 240 246 247 251 249 250 251 256 261 260 262 265 270 275 276 277 280 281 278 282 283 284 286 286
222 221 222 226 225 229 232 233 232 229 227 225 221 222 222 222 228 232 232 233 236 239 247 247 247 251 253 254 255 257 259 263 270 271 272 274 274 278 276 278 279 280 283 288 288
218 219 221 223 223 225 230 232 230 229 225 220 217 221 219 221 223 224 227 231 229 230 236 242 245 249 252 254 254 257 264 269 268 271 270 273 274 272 275 280 282 286 288 290 289
217 218 219 219 225 228 230 234 232 230 227 222 218 221 224 220 220 222 226 227 228 231 239 244 248 250 251 251 255 259 261 262 266 267 269 273 273 273 278 281 283 283 287 288 287
214 215 217 219 221 222 223 225 230 227 228 226 221 220 225 225 222 222 227 231 232 237 243 246 244 245 250 249 253 258 261 258 265 269 273 275 272 275 278 281 284 286 287 287 287
216 214 216 217 220 221 229 225 226 227 226 228 226 223 224 229 227 230 231 234 236 240 241 244 246 246 251 253 255 260 257 263 269 272 275 272 270 270 277 280 285 286 288 290 291